• In Deutschland
  • Länderverzeichnis
  • Für 7 Tage
  • Wassertemperatur
  • Satellitenkarten
  • Wetterkarte
  • Widgets
  • user-avatar
    Anmelden

    Stündliche Wetter Krutoy Holm

    Heute, 20 Juli, Freitag

    Zeit Temperatur Niederschläge Wind Luftdruck Luftfeuchtigkeit
    00:00 +18°C° 0 mm 2 m/S 732 mmHg 98%
    01:00 +18°C° 0 mm 2 m/S 732 mmHg 98%
    02:00 +18°C° 0 mm 2 m/S 732 mmHg 98%
    03:00 +18°C° 0 mm 2 m/S 732 mmHg 98%
    04:00 +18°C° 0 mm 2 m/S 732 mmHg 98%
    05:00 +19°C° 0 mm 2 m/S 732 mmHg 98%
    06:00 +19°C° 0,1 mm 2 m/S 732 mmHg 97%
    07:00 +20°C° 0,1 mm 2 m/S 732 mmHg 97%
    08:00 +20°C° 0,1 mm 2 m/S 732 mmHg 96%
    09:00 +21°C° 0,2 mm 2 m/S 732 mmHg 94%
    10:00 +21°C° 0,2 mm 2 m/S 732 mmHg 92%
    11:00 +23°C° 0,2 mm 2 m/S 733 mmHg 90%
    12:00 +24°C° 0,5 mm 2 m/S 732 mmHg 85%
    13:00 +25°C° 0,5 mm 2 m/S 732 mmHg 81%
    14:00 +26°C° 0,5 mm 2 m/S 732 mmHg 76%
    15:00 +26°C° 0,7 mm 2 m/S 732 mmHg 79%
    16:00 +26°C° 0,7 mm 2 m/S 732 mmHg 81%
    17:00 +26°C° 0,7 mm 2 m/S 732 mmHg 84%
    18:00 +24°C° 0,3 mm 1 m/S 732 mmHg 87%
    19:00 +23°C° 0,3 mm 1 m/S 732 mmHg 91%
    20:00 +22°C° 0,3 mm 1 m/S 732 mmHg 95%
    21:00 +22°C° 0,1 mm 1 m/S 732 mmHg 95%
    22:00 +21°C° 0,1 mm 1 m/S 733 mmHg 96%
    23:00 +20°C° 0,1 mm 1 m/S 733 mmHg 96%

    Morgen, 21 Juli, Samstag

    Zeit Temperatur Niederschläge Wind Luftdruck Luftfeuchtigkeit
    00:00 +20°C° 0 mm 1 m/S 733 mmHg 97%
    01:00 +20°C° 0 mm 1 m/S 733 mmHg 97%
    02:00 +20°C° 0 mm 1 m/S 733 mmHg 97%
    03:00 +20°C° 0 mm 1 m/S 733 mmHg 97%
    04:00 +20°C° 0 mm 1 m/S 733 mmHg 97%
    05:00 +20°C° 0 mm 1 m/S 733 mmHg 98%
    06:00 +21°C° 0 mm 1 m/S 733 mmHg 95%
    07:00 +23°C° 0 mm 1 m/S 734 mmHg 91%
    08:00 +24°C° 0 mm 1 m/S 734 mmHg 88%
    09:00 +25°C° 0,3 mm 1 m/S 734 mmHg 84%
    10:00 +26°C° 0,3 mm 1 m/S 734 mmHg 81%
    11:00 +27°C° 0,3 mm 1 m/S 734 mmHg 77%
    12:00 +27°C° 0,1 mm 1 m/S 734 mmHg 74%
    13:00 +28°C° 0,1 mm 1 m/S 734 mmHg 70%
    14:00 +29°C° 0,1 mm 1 m/S 734 mmHg 67%
    15:00 +28°C° 0,4 mm 1 m/S 734 mmHg 70%
    16:00 +28°C° 0,4 mm 1 m/S 733 mmHg 73%
    17:00 +28°C° 0,4 mm 1 m/S 733 mmHg 76%
    18:00 +26°C° 0,7 mm 1 m/S 734 mmHg 81%
    19:00 +25°C° 0,7 mm 1 m/S 734 mmHg 86%
    20:00 +23°C° 0,7 mm 1 m/S 734 mmHg 91%
    21:00 +22°C° 0,3 mm 1 m/S 734 mmHg 91%
    22:00 +22°C° 0,3 mm 1 m/S 733 mmHg 92%
    23:00 +21°C° 0,3 mm 1 m/S 733 mmHg 93%

    übermorgen, 22 Juli, Sonntag

    Zeit Temperatur Niederschläge Wind Luftdruck Luftfeuchtigkeit
    00:00 +21°C° 0,1 mm 1 m/S 733 mmHg 93%
    01:00 +20°C° 0,1 mm 1 m/S 733 mmHg 94%
    02:00 +20°C° 0,1 mm 1 m/S 733 mmHg 94%
    03:00 +20°C° 0 mm 1 m/S 733 mmHg 95%
    04:00 +20°C° 0 mm 1 m/S 733 mmHg 95%
    05:00 +20°C° 0 mm 1 m/S 733 mmHg 95%
    06:00 +22°C° 0 mm 1 m/S 733 mmHg 92%
    07:00 +23°C° 0 mm 1 m/S 733 mmHg 88%
    08:00 +25°C° 0 mm 1 m/S 733 mmHg 84%
    09:00 +26°C° 0,6 mm 1 m/S 733 mmHg 80%
    10:00 +27°C° 0,6 mm 1 m/S 733 mmHg 75%
    11:00 +28°C° 0,6 mm 2 m/S 733 mmHg 70%
    12:00 +29°C° 0,6 mm 1 m/S 733 mmHg 69%
    13:00 +29°C° 0,6 mm 1 m/S 733 mmHg 67%
    14:00 +29°C° 0,6 mm 1 m/S 733 mmHg 66%
    15:00 +29°C° 1,1 mm 1 m/S 733 mmHg 70%
    16:00 +28°C° 1,1 mm 1 m/S 733 mmHg 74%
    17:00 +28°C° 1,1 mm 1 m/S 733 mmHg 78%
    18:00 +26°C° 1,6 mm 1 m/S 733 mmHg 82%
    19:00 +25°C° 1,6 mm 1 m/S 733 mmHg 86%
    20:00 +23°C° 1,6 mm 1 m/S 733 mmHg 90%
    21:00 +23°C° 0,6 mm 1 m/S 733 mmHg 91%
    22:00 +22°C° 0,6 mm 1 m/S 733 mmHg 91%
    23:00 +22°C° 0,6 mm 1 m/S 733 mmHg 92%

    23 Juli, Montag

    Zeit Temperatur Niederschläge Wind Luftdruck Luftfeuchtigkeit
    00:00 +22°C° 0,1 mm 1 m/S 733 mmHg 93%
    01:00 +21°C° 0,1 mm 1 m/S 733 mmHg 93%
    02:00 +21°C° 0,1 mm 1 m/S 733 mmHg 94%
    03:00 +21°C° 0 mm 1 m/S 733 mmHg 94%
    04:00 +21°C° 0 mm 1 m/S 733 mmHg 95%
    05:00 +21°C° 0 mm 1 m/S 733 mmHg 95%
    06:00 +22°C° 0,8 mm 1 m/S 733 mmHg 93%
    07:00 +24°C° 0,8 mm 1 m/S 733 mmHg 90%
    08:00 +25°C° 0,8 mm 1 m/S 733 mmHg 88%
    09:00 +26°C° 1,8 mm 1 m/S 733 mmHg 86%
    10:00 +26°C° 1,8 mm 2 m/S 733 mmHg 83%
    11:00 +27°C° 1,8 mm 2 m/S 734 mmHg 81%
    12:00 +27°C° 1,1 mm 2 m/S 734 mmHg 80%
    13:00 +27°C° 1,1 mm 2 m/S 734 mmHg 79%
    14:00 +27°C° 1,1 mm 2 m/S 734 mmHg 77%
    15:00 +27°C° 0,8 mm 2 m/S 734 mmHg 80%
    16:00 +27°C° 0,8 mm 2 m/S 734 mmHg 82%
    17:00 +26°C° 0,8 mm 2 m/S 734 mmHg 84%
    18:00 +25°C° 0,5 mm 2 m/S 734 mmHg 88%
    19:00 +24°C° 0,5 mm 2 m/S 734 mmHg 92%
    20:00 +23°C° 0,5 mm 2 m/S 734 mmHg 95%
    21:00 +21°C° 0,9 mm 2 m/S 734 mmHg 96%
    22:00 +20°C° 0,9 mm 2 m/S 734 mmHg 97%
    23:00 +20°C° 0,9 mm 2 m/S 734 mmHg 97%

    24 Juli, Dienstag

    Zeit Temperatur Niederschläge Wind Luftdruck Luftfeuchtigkeit
    00:00 +20°C° 0 mm 2 m/S 734 mmHg 98%
    01:00 +19°C° 0 mm 2 m/S 734 mmHg 98%
    02:00 +20°C° 0 mm 1 m/S 734 mmHg 98%
    03:00 +20°C° 0 mm 1 m/S 735 mmHg 98%
    04:00 +20°C° 0 mm 1 m/S 735 mmHg 98%
    05:00 +20°C° 0 mm 1 m/S 735 mmHg 98%
    06:00 +21°C° 0 mm 1 m/S 735 mmHg 97%
    07:00 +21°C° 0 mm 1 m/S 736 mmHg 96%
    08:00 +21°C° 0 mm 2 m/S 736 mmHg 95%
    09:00 +21°C° 0,1 mm 2 m/S 736 mmHg 94%
    10:00 +21°C° 0,1 mm 2 m/S 736 mmHg 93%
    11:00 +23°C° 0,1 mm 2 m/S 736 mmHg 92%
    12:00 +23°C° 0 mm 2 m/S 736 mmHg 89%
    13:00 +24°C° 0 mm 2 m/S 737 mmHg 86%
    14:00 +24°C° 0 mm 2 m/S 737 mmHg 84%
    15:00 +25°C° 0,1 mm 1 m/S 737 mmHg 83%
    16:00 +25°C° 0,1 mm 1 m/S 737 mmHg 83%
    17:00 +25°C° 0,1 mm 1 m/S 737 mmHg 82%
    18:00 +24°C° 0,3 mm 1 m/S 737 mmHg 86%
    19:00 +23°C° 0,3 mm 1 m/S 737 mmHg 90%
    20:00 +22°C° 0,3 mm 1 m/S 738 mmHg 94%
    21:00 +21°C° 0,5 mm 1 m/S 738 mmHg 95%
    22:00 +21°C° 0,5 mm 1 m/S 738 mmHg 95%
    23:00 +21°C° 0,5 mm 1 m/S 738 mmHg 96%

    25 Juli, Mittwoch

    Zeit Temperatur Niederschläge Wind Luftdruck Luftfeuchtigkeit
    00:00 +20°C° 0,3 mm 1 m/S 738 mmHg 96%
    01:00 +20°C° 0,3 mm 1 m/S 738 mmHg 96%
    02:00 +20°C° 0,3 mm 1 m/S 738 mmHg 97%
    03:00 +20°C° 0,2 mm 1 m/S 739 mmHg 97%
    04:00 +20°C° 0,2 mm 1 m/S 739 mmHg 97%
    05:00 +20°C° 0,2 mm 1 m/S 739 mmHg 97%
    06:00 +21°C° 0,6 mm 1 m/S 739 mmHg 93%
    07:00 +22°C° 0,6 mm 1 m/S 739 mmHg 90%
    08:00 +24°C° 0,6 mm 1 m/S 739 mmHg 87%
    09:00 +25°C° 1,2 mm 1 m/S 739 mmHg 83%
    10:00 +26°C° 1,2 mm 1 m/S 739 mmHg 80%
    11:00 +26°C° 1,2 mm 1 m/S 739 mmHg 77%
    12:00 +26°C° 0,8 mm 2 m/S 739 mmHg 77%
    13:00 +27°C° 0,8 mm 2 m/S 739 mmHg 78%
    14:00 +27°C° 0,8 mm 2 m/S 739 mmHg 79%
    15:00 +27°C° 0,2 mm 2 m/S 739 mmHg 78%
    16:00 +27°C° 0,2 mm 2 m/S 739 mmHg 78%
    17:00 +27°C° 0,2 mm 2 m/S 739 mmHg 78%
    18:00 +25°C° 0,2 mm 2 m/S 740 mmHg 83%
    19:00 +24°C° 0,2 mm 2 m/S 740 mmHg 88%
    20:00 +23°C° 0,2 mm 2 m/S 740 mmHg 92%
    21:00 +21°C° 0 mm 2 m/S 740 mmHg 93%
    22:00 +20°C° 0 mm 3 m/S 740 mmHg 95%
    23:00 +20°C° 0 mm 3 m/S 740 mmHg 96%
    Mehr zeigen